Location: Arborea
(39.7744°N, 8.5819°E)
Time: 23:49:17
(UTC+00:00)

Cosmos 407 Rocket - Pass Details

Date: 24 October 2021
Orbit: 743 x 787 km, 74.0° (Epoch: 27 November)

Event Time Altitude Azimuth Distance (km) Brightness Sun altitude
Rises 18:13:14 0° 349° (NNW) 3,271 6.9 -19.8°
Reaches altitude 10° 18:15:48 10° 358° (N) 2,345 6.0 -20.3°
Enters shadow 18:20:05 35° 49° (NE) 1,249 4.2 -21.1°
